Rbgn^[z[y[W
メイン
   新天体発見情報
     Comet P/2015 T3 = 2023 M3 (PANSTARRS)
投稿するにはまず登録を

スレッド表示 | 古いものから 前のトピック | 次のトピック | 下へ
投稿者 スレッド
佐藤裕久
投稿日時: 2023-7-14 18:09
モデレータ
登録日: 2005-6-12
居住地: 日本
投稿: 2703
オンライン
Comet P/2015 T3 = 2023 M3 (PANSTARRS)

Jacqueline B. Fazekas (LPL 月惑星研究所, アリゾナ大学)の通報によると、6月26日、Mt Lemmon
サーベイの1.5-m反射望遠鏡で得た、CCD画像から彗星を発見した。
この彗星は、集光した12"のコマが見え、p.a.220-250°にわたって3"の広い尾がある。
6月22.45-22.46日UT、D. Rankinが、0.7-m 反射望遠鏡で得た、Catalina Sky サーベイの発見前観測
では、集光した10"のコマが見える。光度は18.7〜19.6等で、尾はない。
小惑星センターのPCCP webpageに公表後、L. Buzzi、Varese, イタリア(A. Aletti, F. Bellini,
G. Galliと彼, 6月29.2UT, 60-秒露出55枚のスタック, 0.36-m f/8.4 反射望遠鏡, Hakos, ナミビア: 
良好な状態, 19.3等の拡散した9"の東西に細長いコマが見え、p.a.約260°にかすかに尾を引いている
可能性がある)や佐藤英貴氏(東京都文京区,6月29.38日, 60-秒露出10枚のスタック, 0.51-m f/6.8 
アストログラフ, Rio Hurtado Valley, チリ, 遠隔操作:強く集光した10" のコマが見え、p.a.225-
315°に広がった20" の扇形の尾がある。5".0の円形範囲で測定した光度は18.7等であった)らCCD観測
者によって彗星状と観測された。
この彗星は、偶然検出されたP/2015 T3 (CBET 4152参照)で、鈴木雅之氏(北海道北見市)によって同定
された。
NK 4409 (= ICQ Comet Handbook 2023)の中野主一氏の予報に対する修正値は、Delta(T) = +0.58 day
であった。

検出位置は次のとおり、

     2023 UT             R.A. (2000) Decl.       Mag.   Observer
     June 26.42483    0 26 58.95   - 6 04 48.1   19.1   Fazekas
          26.43005    0 26 59.42   - 6 04 47.5   18.8     "
          26.43527    0 26 59.86   - 6 04 46.6   19.0     "
          26.44051    0 27 00.29   - 6 04 46.3   19.2     "

MPCの連結軌道要素、位置推算表は次のとおり、

Orbital elements:
    P/2015 T3 (PANSTARRS)                                                       
Epoch 2023 Feb. 25.0 TT = JDT 2460000.5                                         
T 2023 May 3.66076 TT                                   Rudenko                 
q   2.1546162            (2000.0)            P               Q                  
n   0.12136068     Peri.  196.69789     +0.72051342     +0.66864115             
a   4.0403350      Node   119.86870     -0.60953817     +0.73706058             
e   0.4667234      Incl.   12.23633     -0.33064123     +0.09828892             
P   8.12                                                                        
From 99 observations 2015 Sept. 17-2023 July 3, mean residual 0".7.             
                                                                                
Ephemeris:
Date    TT    R. A. (2000) Decl.     Delta      r    Elong.  Phase   m1
2023 06 07    23 56 34.7 -07 05 38   2.1164  2.1720    79.4    27.3  19.0
...
2023 06 22    00 20 29.7 -06 14 05   1.9788  2.1903    87.8    27.6  18.9
...
2023 06 30    00 32 00.1 -05 59 22   1.9070  2.2026    92.7    27.5  18.8
...
2023 07 06    00 39 58.3 -05 54 51   1.8543  2.2129    96.5    27.2  18.8
2023 07 07    00 41 14.5 -05 54 41   1.8457  2.2147    97.1    27.1  18.8
2023 07 08    00 42 29.5 -05 54 40   1.8371  2.2165    97.8    27.0  18.8
...
2023 07 14    00 49 36.5 -05 58 14   1.7861  2.2281   101.8    26.5  18.7
...
2023 07 22    00 57 57.8 -06 13 01   1.7209  2.2449   107.4    25.6  18.7
...
2023 08 06    01 09 39.1 -07 11 58   1.6107  2.2805   118.9    22.9  18.6

(MPEC 2023-N15、CBET 5276)

スレッド表示 | 古いものから 前のトピック | 次のトピック | トップ

投稿するにはまず登録を
 
© 1999 Tsutomu Seki.